COSMOS 1275 DEB

Satellite information

Favourite Embed

Satellite Type and Status

DEBRISIN ORBIT

Key statistics

Satellite COSMOS 1275 DEB at a glance.

Uptime

16047

Days in orbit

Revolutions

≈ 14.2

Per day

Orbit

LEO

Low Earth Orbit

Inclination

83.1

Latest

Satellite identification and parameters

Extended collection of information and parameters for COSMOS 1275 DEB.

Object identification

Identified? True

Debris? True

Object name: COSMOS 1275 DEB

International designator: 1981-053KD

Object number (NORAD): 15768

Object ID (CCSDS): 15768

Country: COMMONWEALTH OF INDEPENDENT STATES (CIS)

Current information (Y/N): Y

RCS size: SMALL

Orbital parameters

Period: 101.654 minutes

Inclination: 83.0619 deg

SMA: 7215.132 km

Apoapsis: 875.254 km

Periapsis: 798.739 km

RAAN: 156.861 deg

Eccentricy: 0.0053024

Argument of periapsis: 86.7437 deg

Mean anomaly: 90.0628 deg

Mean motion: 14.16564573 rev/day

Mean motion (dot): 0.00003478 rev/day2

B* drag term: 0.0017136 1/REarth

Two-line elements (TLE)

Creation date: May 11, 2025, 2:40 a.m.

Reference frame: TEME

Reference center: EARTH

Epoch: May 10, 2025, 8:24 p.m. UTC

TLE line 0: 0 COSMOS 1275 DEB

TLE line 1: 1 15768U 81053KD 25130.85044568 .00003478 00000-0 17136-2 0 9997

TLE line 2: 2 15768 83.0619 156.8610 0053024 86.7437 90.0628 14.16564573 36637

Live tracking on map

Real-time ground track for satellite COSMOS 1275 DEB.

In-orbit conjunctions

A list of the most updated potential collisions computed for object COSMOS 1275 DEB.

Target Orbit TCA Probability of collision Miss distance Type
DELTA 1 DEB SSO 2025-02-13 17:09:03 0.0001251069 94.0 (m) DEBRIS
SL-3 R/B LEO 2024-11-17 18:28:04 0.0004539042 119.0 (m) ROCKET BODY
THORAD AGENA D DEB SSO 2024-06-14 15:53:39 0.0007183258 78.0 (m) DEBRIS

Associated space launch

Navigation satellite providing location information for the Tsiklon-B navigation system

COSMOS 1275 DEB was lifted into orbit during the mission ‘Kosmos-3M | Parus 27’, on board a Kosmos-3M space rocket.

The launch took place on June 4, 1981, 3:41 p.m. from 132/2.

For more information about the launch, click the button.

Launch to space Kosmos-3M | Parus 27
Kosmos-3M | Parus 27

Agency: N/A

Status: Launch Successful

Launch date: June 4, 1981, 3:41 p.m. UTC

Rocket: Kosmos-3M

Launch pad: 132/2

Location: Plesetsk Cosmodrome, Russian Federation

...

Latest news about this satellite

There are no fresh news available about this satellite. Check back as we update our databases every day.


Newsletter sign-up

Weekly statistics, charts and insights to help you stay on top of the space industry.